Location: Morosaglia
(42.4360°N, 9.3069°E)
Time: 13:27:41
(UTC+00:00)

UNK - Pass Details

Date: 07 June 2020
Orbit: 667 x 686 km, 98.1° (Epoch: 15 July)

Event Time Altitude Azimuth Distance (km) Brightness Sun altitude
Exits shadow 01:11:42 41° 173° (S) 978 4.1 -20.0°
Maximum altitude 01:13:19 83° 257° (WSW) 681 3.6 -19.9°
Drops below altitude 10° 01:17:55 10° 345° (NNW) 2,104 6.9 -19.5°
Sets 01:20:09 0° 347° (NNW) 3,020 7.8 -19.3°
